Regional Weather Roundup
Issued by NWS Bismarck, ND

Home | Current Version | Previous Version | Text Only | Print | Product List | Glossary On
Versions: 1 2 3 4 5 6 7 8 9 10 11 12 13 14 15 16 17 18 19 20 21 22 23 24 25 26 27 28 29 30 31 32 33 34 35 36 37 38 39 40 41 42 43 44 45 46 47 48 49 50
000
ASUS43 KBIS 292220
RWRBIS

NWR BROADCAST TEXT
NATIONAL WEATHER SERVICE BISMARCK ND
500 PM CDT SUN MAR 29 2015

NOTE: "FAIR" INDICATES FEW OR NO CLOUDS BELOW 12,000 FEET WITH NO
SIGNIFICANT WEATHER AND/OR OBSTRUCTIONS TO VISIBILITY.


CITY           SKY/WX    TMP DP  RH WIND       PRES   REMARKS
WILLISTON      PTSUNNY   58  29  33 W10G21    29.97F
MINOT          PTSUNNY   58  28  32 W20G28    29.93F
MINOT AFB      SUNNY     56  32  39 NW23G29   29.91F
BISMARCK       MOSUNNY   60  29  30 NW16G28   29.99F
DICKINSON      SUNNY     60  26  27 NW21G26   29.99F
GARRISON         N/A     58  32  37 NW23G31   29.96F
HETTINGER ARPT PTSUNNY   62  27  26 W24G30    30.03F
JAMESTOWN      PTSUNNY   55  24  30 NW21G31   29.94S
BEACH          FAIR      59  27  29 W20G28    30.01F
CARRINGTON     MOCLDY    54  25  32 NW25G32   29.94S
CROSBY         FAIR      57  28  33 NW18G25   29.95F
HARVEY         FAIR      55  27  33 NW18G28   29.93F
HAZEN          FAIR      59  30  33 NW16G24   29.98F
LINTON         FAIR      57  27  30 NW20G25   30.00F
MANDAN         FAIR      57  30  35 NW22G28   29.99F
OAKES            N/A     54  30  40 NW20G26   29.97R
RUGBY          FAIR      54  32  43 NW23G33   29.91S
TIOGA          FAIR      57  32  38 W21G30    29.98F
WATFORD CITY   FAIR      57  30  35 NW15G28   29.97F
$$

CITY           SKY/WX    TMP DP  RH WIND       PRES   REMARKS
GRAND FORKS    PTSUNNY   53  25  33 NW22G31   29.88R
GRAND FORKS AF PTSUNNY   54  25  31 N21G28    29.88S
DEVILS LAKE    CLOUDY    52  30  43 NW21      29.89S
FARGO          MOSUNNY   55  23  28 NW29G38   29.90R
CANDO          CLOUDY    52  32  46 NW18      29.90S
CAVALIER       FAIR      52  30  43 NW21      29.86S
GWINNER        PTCLDY    55  30  38 NW21        N/A
ROLLA          MOCLDY    48  32  53 NW12      29.90F
WALHALLA         N/A     52  32  46 NW22G28   29.86S
$$

CITY           SKY/WX    TMP DP  RH WIND       PRES   REMARKS
ABERDEEN       SUNNY     60  22  23 NW26      30.01S
MOBRIDGE       SUNNY     61  29  29 NW18G24   30.00F
BUFFALO          N/A     62  27  26 NW24      29.99F
RAPID CITY     PTSUNNY   63  26  24 NW12G21   30.08S
GLASGOW        MOSUNNY   60  30  32 W18       29.96F
SIDNEY         MOSUNNY   63  28  27 W14G24    29.98F
WOLF POINT     PTSUNNY   63  32  31 W24G30    29.96F
GLENDIVE         N/A     61  30  31 W20G29    30.00F
MILES CITY     PTSUNNY   62  28  27 W18G25    30.03F
BAKER          PTSUNNY   60  31  33 NW13G23   30.04F
$$

CITY           SKY/WX    TMP DP  RH WIND       PRES   REMARKS
BILLINGS       PTSUNNY   62  13  14 W17       30.05F
GREAT FALLS    MOSUNNY   59  22  24 SW24G31   30.03F
REGINA         MOSUNNY   54  30  40 W7        29.91F
ESTEVAN        MOSUNNY   55  32  41 W18       29.93F
$$




USA.gov is the U.S. government's official web portal to all federal, state and local government web resources and services.